This is the latest recevied weather packets stored in our database for station/object DB7GV-8. If no packets are shown the sender has not sent any weather packets the latest 10 day(s).
| Time | Temp. | Humidity | Pressure | Rain* | Wind** | Luminosity | Snow |
|---|---|---|---|---|---|---|---|
| 1777494913 | 12.22° C | 43% | 1021.7 hPa | - | - | - | - |
| 1777494007 | 12.78° C | 42% | 1021.6 hPa | - | - | - | - |
| 1777493101 | 12.78° C | 42% | 1021.4 hPa | - | - | - | - |
| 1777491291 | 13.33° C | 42% | 1021.1 hPa | - | - | - | - |
| 1777490385 | 13.89° C | 42% | 1020.8 hPa | - | - | - | - |
| 1777489480 | 14.44° C | 39% | 1020.6 hPa | - | - | - | - |
| 1777488574 | 15.56° C | 37% | 1020.3 hPa | - | - | - | - |
| 1777487669 | 16.11° C | 36% | 1020.2 hPa | - | - | - | - |
| 1777486764 | 16.67° C | 34% | 1020 hPa | - | - | - | - |
| 1777485858 | 17.22° C | 34% | 1019.8 hPa | - | - | - | - |
| 1777484953 | 17.78° C | 32% | 1019.6 hPa | - | - | - | - |
| 1777484048 | 18.33° C | 31% | 1019.4 hPa | - | - | - | - |
| 1777483142 | 18.89° C | 30% | 1019.3 hPa | - | - | - | - |
| 1777482236 | 20° C | 29% | 1019.2 hPa | - | - | - | - |
| 1777481331 | 21.11° C | 28% | 1019.2 hPa | - | - | - | - |
| 1777480426 | 22.22° C | 27% | 1019.1 hPa | - | - | - | - |
| 1777479520 | 22.22° C | 26% | 1019.1 hPa | - | - | - | - |
| 1777478615 | 22.22° C | 25% | 1019 hPa | - | - | - | - |
| 1777476804 | 22.78° C | 24% | 1019.1 hPa | - | - | - | - |
| 1777475899 | 23.33° C | 24% | 1018.9 hPa | - | - | - | - |
| 1777474994 | 23.33° C | 25% | 1019 hPa | - | - | - | - |
| 1777474088 | 23.33° C | 25% | 1018.8 hPa | - | - | - | - |
| 1777473182 | 23.89° C | 26% | 1019 hPa | - | - | - | - |
| 1777471371 | 23.33° C | 26% | 1018.8 hPa | - | - | - | - |
| 1777470466 | 24.44° C | 25% | 1018.9 hPa | - | - | - | - |
* Rain since midnight (hover to see other rain measurements)
** Current wind speed in m/s (hover to see current wind gust speed)